Location: Houston
(29.7630°N, 95.3630°W)
Time: 15:10:34
(UTC-05:00)

Daily predictions for brighter satellites

Satellite Brightness Start Highest point End
(mag) Time Altitude Azimuth Time Altitude Azimuth Time Altitude Azimuth
Cosmos 1953 2.9 20:52:54 10° NNE 20:56:39 38° E 21:00:23 10° SSE
Cosmos 1602 Rocket 3.6 20:53:00 10° S 20:57:25 68° E 21:01:53 10° NNE
Cosmos 1805 4.0 20:54:01 10° NNW 20:57:50 55° W 21:01:38 10° S
Hubble Space Telescope 1.4 20:54:39 10° W 20:58:35 42° SSW 21:02:29 10° SE
H-II Stage 2 3.7 20:49:38 10° SW 20:58:44 26° S 21:01:47 10° ESE
USA 186 1.9 20:58:18 10° SSE 21:01:35 60° ENE 21:04:43 10° N
BREEZE-M R/B 4.1 20:59:35 10° NNW 21:02:11 20° NNE 21:04:11 10° E
Thor Agena Rocket 3.5 20:58:26 10° NNE 21:03:32 75° ESE 21:08:32 10° S
Cosmos 1812 Rocket 4.3 21:02:21 10° NNE 21:06:19 33° E 21:10:17 10° SE
SJ-6B 3.3 21:03:28 10° S 21:07:16 62° W 21:11:12 10° NNW
ERS-2 3.3 21:05:22 11° SE 21:08:24 27° ENE 21:11:33 10° NNE
Cosmos 1943 3.5 21:04:25 10° N 21:09:56 52° ENE 21:15:11 11° SE
ATLAS 2AS CENTAUR R/B 3.3 21:05:01 10° S 21:12:05 45° ESE 21:19:36 10° NE
Cosmos 1238 Rocket 4.3 21:13:47 11° E 21:13:56 11° E 21:14:57 10° ENE
Lacrosse 5 1.9 21:09:07 10° SW 21:14:11 86° NW 21:19:15 10° NE
OAO 3 Rocket 4.0 21:09:38 10° W 21:14:30 54° N 21:19:21 10° ENE
SL-8 R/B 3.6 21:10:51 10° SW 21:15:40 81° SE 21:20:30 10° NE
Resurs 01 Rocket 1.8 21:11:56 10° SSE 21:16:13 55° ENE 21:20:32 10° N
Cosmos 1400 Rocket 2.7 21:12:46 10° S 21:16:49 74° E 21:20:49 10° NNE
NOSS 8 (A) 4.3 21:13:12 10° SSW 21:16:53 87° ESE 21:20:03 10° NNE
Aureole 1 Rocket 2.2 21:18:47 10° S 21:21:42 58° ESE 21:25:00 10° NNE
Envisat 4.5 21:20:55 10° SSW 21:25:32 36° W 21:30:12 10° NNW
Iridium 4 Rocket 4.1 21:21:38 10° SSE 21:27:03 43° E 21:32:09 10° NNE
NOAA 11 4.2 21:22:36 10° SSE 21:27:52 65° ENE 21:33:13 10° N
Cosmos 1844 Rocket 3.2 21:23:00 10° S 21:28:09 37° ESE 21:33:18 10° NE
Cosmos 1470 3.0 21:29:22 10° N 21:33:15 70° W 21:37:09 10° S
Meteor 1-24 Rocket 4.2 21:32:04 11° SSE 21:37:27 44° E 21:43:08 10° NNE
Aurora 2 Rocket 3.9 21:32:00 10° WSW 21:37:45 48° SSE 21:45:04 13° E
Cosmos 1048 Rocket 4.0 21:33:34 10° SSW 21:38:49 86° ESE 21:44:11 10° NNE
Cosmos 1825 Rocket 3.5 21:35:03 10° S 21:39:29 69° E 21:43:55 10° NNE
USA 215 3.4 21:40:27 20° ESE 21:45:11 66° NE 21:51:41 10° NW
SWAS 4.4 21:43:41 10° NNW 21:48:00 73° ENE 21:50:09 29° SSE
Meteor 2-5 Rocket 3.9 21:45:20 10° S 21:51:17 86° W 21:57:14 10° N
Cosmos 2285 Rocket 4.0 21:48:39 10° SSW 21:55:00 88° ESE 22:01:20 10° NNE
CZ-4B DEB 4.4 21:56:17 43° SSE 21:57:15 70° ENE 22:00:42 10° N
Spot 2 Rocket 3.8 21:56:56 17° S 22:00:47 66° WSW 22:05:49 10° NNW
Cosmos 1437 4.1 21:58:42 10° NNE 22:00:49 25° ENE 22:00:49 25° ENE
Cosmos 1452 Rocket 3.6 22:01:32 10° NNW 22:06:48 73° WSW 22:09:45 26° S
Cosmos 1420 Rocket 4.0 22:02:59 10° NNW 22:08:10 82° WSW 22:10:42 31° S
Delta 198 4.5 22:03:26 10° WSW 22:09:05 40° S 22:10:02 37° SE
Cosmos 2266 Rocket 4.3 22:04:19 10° NNW 22:10:38 66° W 22:15:45 16° S
Palapa 6 Rocket 4.1 22:08:54 10° WSW 22:14:04 43° S 22:15:33 37° SE
Terra 4.0 22:14:51 12° ENE 22:14:51 12° ENE 22:16:29 10° NE
SPOT 1/Viking Rocket 4.5 22:22:20 30° E 22:22:52 31° ENE 22:27:19 10° N
H-2A R/B 2.0 22:21:14 44° SSE 22:22:56 77° ENE 22:28:18 10° N
Nadezhda 2 Rocket 4.4 22:19:16 10° N 22:25:31 84° E 22:28:08 37° S
Cosmos 1674 2.5 22:25:41 83° ENE 22:25:41 83° ENE 22:29:27 10° N
H-2A R/B (2) 4.4 22:28:31 29° ESE 22:28:31 29° ESE 22:46:18 10° ENE
MetOp-B 4.0 22:25:41 45° SSE 22:27:26 85° ENE 22:32:48 10° N
Cosmos-2242 2.9 22:27:16 10° N 22:31:40 81° E 22:31:59 75° SE
OAO 3 Copernicus 4.4 22:30:15 10° WNW 22:35:19 72° NNE 22:36:22 54° E
Cosmos 1553 Rocket 3.8 22:33:39 43° SSE 22:35:43 75° E 22:41:47 10° N
Cosmos 2084 4.2 22:32:40 10° NNW 22:35:44 36° NE 22:35:44 36° NE
Hubble Space Telescope 3.2 22:37:05 10° WSW 22:37:50 12° SW 22:37:50 12° SW
Cosmos 494 Rocket 4.3 22:36:41 21° SSW 22:40:09 63° WNW 22:45:22 10° N
Cosmos 1331 Rocket 4.5 22:35:19 10° N 22:40:16 43° ENE 22:40:24 43° ENE
USA 238 DEB 4.5 22:35:23 10° NNW 22:42:07 41° NE 22:44:13 34° E
ATLAS 3B R/B 3.7 22:37:08 10° N 22:42:44 29° NE 22:44:26 25° ENE
Meteor 1-21 Rocket 4.3 22:43:12 55° ESE 22:43:39 56° E 22:49:21 10° NNE
Helios 1A 3.8 22:45:57 41° NE 22:45:57 41° NE 22:49:11 10° N
SPOT 5 3.0 22:47:50 60° ENE 22:47:53 60° ENE 22:52:58 10° N
DMSP B5D2-2 4.2 22:44:28 10° N 22:49:41 69° WNW 22:51:24 42° SW
Cosmos 2278 Rocket 2.2 22:50:05 61° E 22:50:05 61° E 22:55:30 10° NNE
Cosmos 1726 3.5 22:47:46 10° N 22:50:03 34° NNE 22:50:03 34° NNE
Meteor 2-10 4.2 22:50:33 10° N 22:55:59 63° E 22:56:00 63° E
ARGOS 4.3 22:55:27 29° SW 22:57:21 38° W 23:02:23 10° NNW
OAO 3 Rocket 4.1 22:53:45 10° WNW 22:58:31 46° N 22:59:32 40° NE
CZ-3 Stage 3 4.4 22:55:41 10° W 23:00:28 90° SW 23:36:21 10° ESE
Helios 1B rocket 3.4 22:56:52 10° NNE 22:59:36 41° NNE 22:59:36 41° NNE
ATLAS 2AS CENTAUR R/B 4.5 22:56:14 10° WSW 23:03:10 35° NW 23:10:26 10° NNE
Cosmos 2251 Rocket 3.6 23:05:49 71° WSW 23:06:14 76° WNW 23:11:35 10° NNE
ERS-1 Rocket 3.5 23:06:46 49° WSW 23:07:08 50° W 23:12:01 10° NNW
COSMOS 2406 3.3 23:02:51 10° NNW 23:08:28 66° ENE 23:08:28 66° ENE
Cosmos 1346 Rocket 4.4 23:05:04 10° NNW 23:08:20 31° W 23:08:20 31° W
CZ-2C R/B 3.9 23:09:46 43° ENE 23:09:46 43° ENE 23:14:55 10° N
Cosmos 2221 4.2 23:16:57 10° N 23:19:04 26° NNE 23:19:04 26° NNE
Cosmos 921 Rocket 4.5 23:22:47 10° NNW 23:26:03 34° WNW 23:26:03 34° WNW
Aurora 2 Rocket 4.1 23:24:28 10° WSW 23:31:37 65° S 23:31:37 65° S
ATLAS 5 CENTAUR R/B 3.4 23:35:22 26° NNE 23:35:22 26° NNE 23:37:32 10° NNE
Cosmos 1745 Rocket 4.2 23:31:15 10° NNW 23:37:25 59° W 23:37:41 59° WSW
NOSS 3-4 (A) 4.2 23:37:55 32° WSW 23:40:21 49° WNW 23:46:26 10° NNE
NOSS 3-4 (C) 4.1 23:38:08 34° WSW 23:40:26 49° WNW 23:46:32 10° NNE
Cosmos 2082 Rocket 3.8 23:39:36 10° N 23:43:22 24° NE 23:43:22 24° NE
Cosmos 1833 Rocket 4.1 23:44:18 10° N 23:48:06 29° NE 23:48:06 29° NE
Terra 3.2 23:53:44 35° NW 23:53:44 35° NW 23:56:42 10° NNW
CENTAUR R/B 4.3 23:45:01 10° N 23:52:04 31° NE 23:54:15 28° ENE
